Weather History for Winston-Salem, NC

Change the Weather History Date:

Monday, March 11, 2013

  Actual Average Record
Temperature  
Mean Temperature 54 °F -  
Max Temperature 64 °F 55 °F 78 °F (2006)
Min Temperature 43 °F 37 °F 21 °F (1969)
Degree Days  
Heating Degree Days 12    
Growing Degree Days 4 (Base 50)    
Moisture  
Dew Point 39 °F    
Average Humidity 55    
Maximum Humidity 87    
Minimum Humidity 32    
Precipitation  
Precipitation 0.03 in - - ()
Sea Level Pressure  
Sea Level Pressure 30.05 in    
Wind  
Wind Speed 5 mph (SSE)    
Max Wind Speed 14 mph    
Max Gust Speed 23 mph    
Visibility 10 miles    
Events Rain    
Averages and records for this station are not official NWS values.
T = Trace of Precipitation, MM = Missing Value Source: NWS Daily Summary

Daily Weather History Graph

Daily Weather History Graph

Search for Another Location

Airport:

Trip Planner

Search our weather history database for the weather conditions in past years. The results will help you decide how hot, cold, wet, or windy it might be!

Date:

Astronomy

Mar. 11, 2013 Rise Set
Actual Time 7:37 AM EDT 7:25 PM EDT
Civil Twilight 7:11 AM EDT 7:50 PM EDT
Nautical Twilight 6:41 AM EDT 8:20 PM EDT
Astronomical Twilight 6:11 AM EDT 8:50 PM EDT
Moon 7:10 AM EDT (3/11) 7:33 PM EDT (3/11)
Length of Visible Light 12h 39m
Length of Day
11h 47m
Waning Crescent, 0% of the Moon is Illuminated
Mar 11
Waning Crescent
Mar 11
New
Mar 19
First Quarter
Mar 27
Full
Apr 3
Last Quarter

Hourly Weather History & Observations

Time (EDT) Temp. Dew Point Humidity Pressure Visibility Wind Dir Wind Speed Gust Speed Precip Events Conditions
12:54 AM 51.1 °F 28.9 °F 43% 30.19 in 10.0 mi SSE 3.5 mph - N/A   Clear
1:54 AM 51.1 °F 24.1 °F 35% 30.19 in 10.0 mi South 5.8 mph - N/A   Clear
2:54 AM 48.9 °F 23.0 °F 36% 30.17 in 10.0 mi South 4.6 mph - N/A   Clear
3:54 AM 48.0 °F 19.0 °F 32% 30.16 in 10.0 mi South 3.5 mph - N/A   Clear
4:54 AM 46.9 °F 18.0 °F 32% 30.13 in 10.0 mi SSE 3.5 mph - N/A   Clear
5:54 AM 45.0 °F 19.9 °F 37% 30.14 in 10.0 mi Calm Calm - N/A   Clear
6:54 AM 44.1 °F 21.0 °F 40% 30.13 in 10.0 mi Calm Calm - N/A   Clear
7:54 AM 43.0 °F 21.0 °F 42% 30.13 in 10.0 mi Calm Calm - N/A   Clear
8:54 AM 45.0 °F 27.0 °F 49% 30.13 in 10.0 mi Calm Calm - N/A   Overcast
9:54 AM 48.9 °F 30.9 °F 50% 30.14 in 10.0 mi SSE 3.5 mph - N/A   Scattered Clouds
10:03 AM 48.2 °F 32.0 °F 54% 30.14 in 10.0 mi Variable 4.6 mph - N/A   Mostly Cloudy
10:54 AM 52.0 °F 39.9 °F 63% 30.13 in 10.0 mi South 5.8 mph - N/A   Overcast
11:32 AM 53.6 °F 44.6 °F 72% 30.12 in 10.0 mi South 8.1 mph - N/A   Overcast
11:54 AM 55.0 °F 45.0 °F 69% 30.11 in 10.0 mi SSE 4.6 mph - N/A   Mostly Cloudy
12:54 PM 59.0 °F 48.0 °F 67% 30.08 in 10.0 mi SSE 9.2 mph - N/A   Mostly Cloudy
1:41 PM 60.8 °F 48.2 °F 63% 30.05 in 10.0 mi SSE 5.8 mph - N/A   Overcast
1:54 PM 60.1 °F 48.9 °F 67% 30.04 in 10.0 mi South 9.2 mph 19.6 mph N/A   Overcast
2:23 PM 62.6 °F 48.2 °F 59% 30.03 in 10.0 mi South 13.8 mph 19.6 mph N/A   Overcast
2:54 PM 63.0 °F 48.0 °F 58% 30.00 in 10.0 mi South 9.2 mph 18.4 mph N/A   Overcast
3:54 PM 64.0 °F 46.9 °F 54% 29.96 in 10.0 mi South 11.5 mph 19.6 mph N/A   Overcast
4:54 PM 64.9 °F 46.9 °F 52% 29.94 in 10.0 mi SSE 11.5 mph 19.6 mph N/A   Mostly Cloudy
5:54 PM 64.9 °F 48.0 °F 54% 29.92 in 10.0 mi SSE 13.8 mph 20.7 mph N/A   Overcast
6:54 PM 63.0 °F 48.9 °F 60% 29.91 in 10.0 mi SSE 9.2 mph 16.1 mph N/A   Mostly Cloudy
7:54 PM 63.0 °F 48.9 °F 60% 29.94 in 10.0 mi South 8.1 mph - N/A   Overcast
8:54 PM 62.1 °F 50.0 °F 65% 29.90 in 10.0 mi SSE 9.2 mph 17.3 mph N/A   Scattered Clouds
9:54 PM 61.0 °F 50.0 °F 67% 29.89 in 10.0 mi SSE 9.2 mph 23.0 mph N/A   Overcast
10:54 PM 59.0 °F 51.1 °F 75% 29.89 in 10.0 mi South 11.5 mph 18.4 mph 0.00 in Rain Light Rain
11:54 PM 57.0 °F 53.1 °F 87% 29.87 in 10.0 mi SSE 8.1 mph - 0.03 in Rain Light Rain